Home > Weather > Beira > Past weeks

Flag for Mozambique Weather for the Past 2 Weeks in Beira, Mozambique

Now
82 °F

Clear.


Feels Like: 89 °F
Forecast: 79 / 87 °F
Wind: 9 mph from Northeast

Location: Beira Airport

Current Time: Feb 8, 2016 at 1:04:10 AM

Latest Report: Feb 7, 2016 at 11:00 PM


Visibility: 10 mi

Pressure: 29.83 "Hg

Humidity: 79%

Dew point: 75 °F

Location of BeiraLocation

Historic Weather in Beira — Graph

°F

Beira Temperature Yesterday

Maximum temperature yesterday: 88 °F (at 11:00 AM)
Minimum temperature yesterday: 75 °F (at 5:00 AM)
Average temperature yesterday: 83 °F

High & Low Weather Summary for the Past Weeks

 TemperatureHumidityPressure
High93 °F (Jan 25, 11:00 AM)100% (Jan 27, 5:00 AM)29.95 "Hg (Jan 27, 5:00 AM)
Low75 °F (Feb 7, 5:00 AM)53% (Jan 25, 11:00 AM)29.59 "Hg (Jan 25, 5:00 PM)
Average84 °F76%29.83 "Hg
* Reported Jan 24 7:00 AM — Feb 7 11:00 PM, Beira, Weather by CustomWeather, © 2016

Note: Actual official high and low records may vary slightly from our data, if they occured in-between our weather recording intervals... More about our weather records

Advertising

Beira Weather History for the Previous 24 Hours

 ConditionsComfort  
Time TempWeatherWind HumidityBarometerVisibility
11:00 PM
Sun, Feb 7
82 °FClear.9 mph79%29.83 "Hg10 mi
8:00 PM82 °FPassing clouds.10 mph79%29.80 "HgN/A
7:00 PM84 °FPassing clouds.13 mph74%29.80 "HgN/A
6:00 PM86 °FPassing clouds.13 mph70%29.77 "HgN/A
5:00 PM86 °FPassing clouds.15 mph70%29.77 "HgN/A
4:00 PM86 °FPassing clouds.16 mph75%29.77 "HgN/A
3:00 PM88 °FPassing clouds.16 mph66%29.80 "HgN/A
2:00 PM88 °FPassing clouds.14 mph66%29.80 "HgN/A
1:00 PM88 °FPassing clouds.12 mph66%29.86 "HgN/A
12:00 PM88 °FScattered clouds.10 mph66%29.86 "HgN/A
11:00 AM88 °FScattered clouds.8 mph59%29.86 "HgN/A
10:00 AM82 °FScattered clouds.3 mph74%29.89 "HgN/A
9:00 AM81 °FScattered clouds.2 mph79%29.89 "HgN/A
8:00 AM81 °FPassing clouds.7 mph79%29.86 "HgN/A
7:00 AM77 °FPassing clouds.8 mph83%29.86 "HgN/A
6:00 AM77 °FScattered clouds.5 mph83%29.86 "HgN/A
5:00 AM75 °FPassing clouds.5 mph94%29.86 "HgN/A
Weather by CustomWeather, © 2016

See weather overviewHow to use our weather pages